Regional Weather Roundup
Issued by NWS

Home | Current Version | Previous Version | Text Only | Print | Product List | Glossary On
Versions: 1 2 3 4 5 6 7 8 9 10 11 12 13 14 15 16 17 18 19 20 21 22 23 24 25 26 27 28 29 30 31 32 33 34 35 36 37 38 39 40 41 42 43 44 45 46 47 48 49 50
252
ASUS42 KKEY 301710
RWRKEY

FLORIDA REGIONAL WEATHER ROUNDUP FOR THE FLORIDA KEYS
NATIONAL WEATHER SERVICE KEY WEST FLORIDA
100 PM EDT THU MAR 30 2017

...SOUTH FLORIDA AND THE KEYS...

CITY           SKY/WX    TMP DP  RH WIND       PRES   REMARKS
FORT MYERS     MOSUNNY   87  58  37 S10G17    29.98F
SW REGIONAL AP MOSUNNY   83  57  41 SE8       29.98F
NAPLES         MOSUNNY   82  61  48 SE8       29.98S
MIAMI          MOSUNNY   81  62  52 E20G25    30.00F
WEST KENDALL   PTSUNNY   82  59  45 S12G22    29.99F
HOMESTEAD      PTSUNNY   81  64  57 SE12G22   29.99F
MARATHON       SUNNY     83  66  56 SE10G20   29.98F
BOCA CHICA NAS MOSUNNY   82  65  56 SE21G29   29.97F
KEY WEST INTL  SUNNY     81  66  60 SE21      29.97F

...INTERNATIONAL WEATHER...

CITY           SKY/WX    TMP DP  RH WIND       PRES   REMARKS
NASSAU BAHAMAS MOSUNNY   84  55  37 SE10      30.05F
CANCUN MEXICO  PTSUNNY   84  72  65 SE20      29.89F
COZUMEL MEXICO MOSUNNY   84  68  58 SE14      29.88F

ADJACENT COASTAL WATERS...

STATION/POSITION TIME  SKY/WX   TEMP    WIND        PRES    WAVE
                                AIR SEA DIR/SP/G            HT/PER
                 (UTC)          (F)     (DEG/KT/KT) (MB)    (FT/S)
PULASKI SHOAL LI 1700            76     160/ 19/ 22 1014.8S
SAND KEY         1650            76     160/ 21/ 26 1015.2F
LONG KEY         1600            77 78  160/ 16/ 18 1015.8F
MOLASSES REEF    1700            76 78  160/ 17/ 19 1015.8F
FOWEY ROCKS      1700            75 78  130/ 17/ 18 1016.4F
Buoy 42097       1630                                 N/A     4/ 5

$$




USA.gov is the U.S. government's official web portal to all federal, state and local government web resources and services.